OK1ZDJ-13 Weather Reports


Display with metric or nautical units.
time (UTC)temp
F
wind
direction
speed
MPH
gust
MPH
rain 1hr
in
rain 24hr
in
rain mn
in
humidity
%
barometer
mb
20260507025816 54 0.0 0.0 0.00 0.00 0.00 10 1009.9
20260507024816 54 0.0 0.0 0.00 0.00 0.00 10 1009.8
20260507023816 54 0.0 0.0 0.00 0.00 0.00 99 1009.8
20260507022816 54 0.0 0.0 0.00 0.00 0.00 98 1009.9
20260507021816 54 0.0 0.0 0.00 0.00 0.00 98 1009.8
20260507020816 53 0.0 0.0 0.00 0.00 0.00 97 1009.8
20260507015816 53 0.0 0.0 0.00 0.00 0.00 96 1009.8
20260507014816 53 0.0 0.0 0.00 0.00 0.00 95 1009.8
20260507013816 54 0.0 0.0 0.00 0.00 0.00 95 1009.7
20260507012816 54 0.0 0.0 0.00 0.00 0.00 96 1009.5
20260507011816 55 0.0 0.0 0.00 0.00 0.00 97 1009.6
20260507010816 55 0.0 0.0 0.00 0.00 0.00 97 1009.6
20260507005816 55 0.0 0.0 0.00 0.00 0.00 97 1009.5
20260507004816 55 0.0 0.0 0.00 0.00 0.00 97 1009.4
20260507003816 55 0.0 0.0 0.00 0.00 0.00 97 1009.2
20260507002816 55 0.0 0.0 0.00 0.00 0.00 97 1008.9
20260507001816 55 0.0 0.0 0.00 0.00 0.00 97 1008.7
20260507000816 55 0.0 0.0 0.00 0.00 0.00 96 1008.6
20260506234816 55 0.0 0.0 0.00 0.00 0.00 96 1008.3
20260506233816 55 0.0 0.0 0.00 0.00 0.00 95 1008.1
20260506232816 56 0.0 0.0 0.00 0.00 0.00 95 1008.1
20260506231816 56 0.0 0.0 0.00 0.00 0.00 95 1007.9
20260506230818 56 0.0 0.0 0.00 0.00 0.00 96 1007.9
20260506225816 56 0.0 0.0 0.00 0.00 0.00 96 1007.0
20260506224816 56 0.0 0.0 0.00 0.00 0.00 94 1007.8
20260506223816 56 0.0 0.0 0.00 0.00 0.00 94 1008.7
20260506222816 56 0.0 0.0 0.00 0.00 0.00 94 1008.8
20260506221816 56 0.0 0.0 0.00 0.00 0.00 93 1009.0
20260506220816 57 0.0 0.0 0.00 0.00 0.00 92 1008.9
20260506215816 57 0.0 0.0 0.00 0.00 0.00 92 1009.3
20260506214816 57 0.0 0.0 0.00 0.00 0.00 91 1008.3
20260506213821 57 0.0 0.0 0.00 0.00 0.00 92 1008.6
20260506212815 57 0.0 0.0 0.00 0.00 0.00 90 1008.0
20260506211815 57 0.0 0.0 0.00 0.00 0.00 94 1007.7
20260506204815 57 0.0 0.0 0.00 0.00 0.00 93 1007.3
20260506203815 56 0.0 0.0 0.00 0.00 0.00 93 1007.7
20260506202815 56 0.0 0.0 0.00 0.00 0.00 93 1007.6
20260506201815 56 0.0 0.0 0.00 0.00 0.00 92 1007.4
20260506195815 56 0.0 0.0 0.00 0.00 0.00 92 1006.7
20260506194815 56 0.0 0.0 0.00 0.00 0.00 92 1006.4
20260506193815 56 0.0 0.0 0.00 0.00 0.00 93 1006.4
20260506192815 56 0.0 0.0 0.00 0.00 0.00 93 1006.4
20260506191815 56 0.0 0.0 0.00 0.00 0.00 92 1006.3
20260506190815 56 0.0 0.0 0.00 0.00 0.00 93 1006.1
20260506184815 57 0.0 0.0 0.00 0.00 0.00 92 1006.0
20260506183815 57 0.0 0.0 0.00 0.00 0.00 91 1006.0
20260506182815 57 0.0 0.0 0.00 0.00 0.00 90 1006.1
20260506181815 57 0.0 0.0 0.00 0.00 0.00 92 1006.0
20260506180815 57 0.0 0.0 0.00 0.00 0.00 92 1006.1
20260506175815 57 0.0 0.0 0.00 0.00 0.00 92 1006.4
20260506174815 57 0.0 0.0 0.00 0.00 0.00 92 1006.5
20260506173815 56 0.0 0.0 0.00 0.00 0.00 90 1006.5
20260506172815 56 0.0 0.0 0.00 0.00 0.00 91 1006.7
20260506171815 56 0.0 0.0 0.00 0.00 0.00 90 1007.1
20260506170815 56 0.0 0.0 0.00 0.00 0.00 87 1007.2
20260506165815 58 0.0 0.0 0.00 0.00 0.00 84 1007.5
20260506164815 60 0.0 0.0 0.00 0.00 0.00 81 1005.9
20260506163815 61 0.0 0.0 0.00 0.00 0.00 83 1005.5
20260506162815 62 0.0 0.0 0.00 0.00 0.00 82 1005.8
20260506161815 62 0.0 0.0 0.00 0.00 0.00 82 1006.2
20260506160815 63 0.0 0.0 0.00 0.00 0.00 79 1006.8
20260506155815 63 0.0 0.0 0.00 0.00 0.00 79 1006.7
20260506154815 64 0.0 0.0 0.00 0.00 0.00 79 1006.0
20260506153819 64 0.0 0.0 0.00 0.00 0.00 73 1006.0
20260506152813 64 0.0 0.0 0.00 0.00 0.00 75 1006.0
20260506150813 66 0.0 0.0 0.00 0.00 0.00 65 1006.8
20260506145813 73 0.0 0.0 0.00 0.00 0.00 49 1006.6
20260506143813 75 0.0 0.0 0.00 0.00 0.00 36 1006.2
20260506141813 74 0.0 0.0 0.00 0.00 0.00 39 1006.3
20260506140813 74 0.0 0.0 0.00 0.00 0.00 36 1006.5
20260506135813 74 0.0 0.0 0.00 0.00 0.00 37 1006.5
20260506134813 74 0.0 0.0 0.00 0.00 0.00 37 1006.6
20260506133813 74 0.0 0.0 0.00 0.00 0.00 37 1006.7
20260506132813 74 0.0 0.0 0.00 0.00 0.00 37 1006.9
20260506131813 74 0.0 0.0 0.00 0.00 0.00 38 1007.1
20260506124813 73 0.0 0.0 0.00 0.00 0.00 37 1007.4
20260506123813 73 0.0 0.0 0.00 0.00 0.00 38 1007.7
20260506122813 73 0.0 0.0 0.00 0.00 0.00 37 1007.9
20260506121813 73 0.0 0.0 0.00 0.00 0.00 40 1007.9
20260506120813 72 0.0 0.0 0.00 0.00 0.00 40 1007.9
20260506115813 72 0.0 0.0 0.00 0.00 0.00 42 1008.0
20260506114813 71 0.0 0.0 0.00 0.00 0.00 42 1008.1
20260506113813 71 0.0 0.0 0.00 0.00 0.00 42 1008.3
20260506112813 70 0.0 0.0 0.00 0.00 0.00 42 1008.5
20260506111813 70 0.0 0.0 0.00 0.00 0.00 44 1008.5
20260506105813 69 0.0 0.0 0.00 0.00 0.00 45 1008.5
20260506104813 69 0.0 0.0 0.00 0.00 0.00 46 1008.6
20260506103813 69 0.0 0.0 0.00 0.00 0.00 46 1008.7
20260506102813 68 0.0 0.0 0.00 0.00 0.00 48 1008.8
20260506101813 68 0.0 0.0 0.00 0.00 0.00 47 1008.9
20260506100813 68 0.0 0.0 0.00 0.00 0.00 50 1008.9
20260506095813 67 0.0 0.0 0.00 0.00 0.00 50 1008.8
20260506094813 67 0.0 0.0 0.00 0.00 0.00 49 1008.8
20260506093818 67 0.0 0.0 0.00 0.00 0.00 50 1008.8
20260506092812 67 0.0 0.0 0.00 0.00 0.00 49 1008.8
20260506091812 67 0.0 0.0 0.00 0.00 0.00 51 1008.8
20260506090812 66 0.0 0.0 0.00 0.00 0.00 52 1008.8
20260506085812 66 0.0 0.0 0.00 0.00 0.00 53 1008.7
20260506084812 66 0.0 0.0 0.00 0.00 0.00 54 1008.7
20260506083812 65 0.0 0.0 0.00 0.00 0.00 55 1008.7
20260506082812 64 0.0 0.0 0.00 0.00 0.00 55 1008.6
20260506081812 64 0.0 0.0 0.00 0.00 0.00 56 1008.6
20260506080812 64 0.0 0.0 0.00 0.00 0.00 58 1008.6
20260506071812 62 0.0 0.0 0.00 0.00 0.00 64 1008.8
20260506070812 62 0.0 0.0 0.00 0.00 0.00 65 1008.9
20260506061812 64 0.0 0.0 0.00 0.00 0.00 61 1008.4
20260506060812 64 0.0 0.0 0.00 0.00 0.00 62 1008.5
20260506050812 58 0.0 0.0 0.00 0.00 0.00 85 1008.3
20260506044812 55 0.0 0.0 0.00 0.00 0.00 92 1008.3
20260506043812 55 0.0 0.0 0.00 0.00 0.00 92 1008.5
20260506042812 55 0.0 0.0 0.00 0.00 0.00 92 1008.4
20260506041812 55 0.0 0.0 0.00 0.00 0.00 92 1008.1
20260506035812 54 0.0 0.0 0.00 0.00 0.00 91 1007.8
20260506034812 54 0.0 0.0 0.00 0.00 0.00 91 1007.7
20260506033816 54 0.0 0.0 0.00 0.00 0.00 90 1007.8
20260506032810 54 0.0 0.0 0.00 0.00 0.00 89 1007.9
20260506031810 54 0.0 0.0 0.00 0.00 0.00 88 1007.8
20260506030810 54 0.0 0.0 0.00 0.00 0.00 86 1007.8